Location: Moscow
(55.7500°N, 37.5830°E)
Time: 07:37:23
(UTC+03:00)

N. Korean satellite - Pass Details

Date: 30 October 2021
Orbit: 446 x 495 km, 97.3° (Epoch: 04 December)

Event Time Altitude Azimuth Distance (km) Brightness Sun altitude
Rises 17:55:36 0° 208° (SSW) 2,560 10.9 -9.1°
Reaches altitude 10° 17:58:15 10° 230° (SW) 1,692 10.4 -9.4°
Maximum altitude 18:00:38 17° 271° (W) 1,345 10.1 -9.8°
Drops below altitude 10° 18:03:03 10° 312° (NW) 1,710 9.9 -10.1°
Sets 18:05:46 0° 334° (NNW) 2,602 10.5 -10.5°
